Time,TemperatureF,DewpointF,PressureIn,WindDirection,WindDirectionDegrees,WindSpeedMPH,WindSpeedGustMPH,Humidity,HourlyPrecipIn,Conditions,Clouds,dailyrainin,SoftwareType,DateUTC
2013-03-30 00:00:00,47.5,41.9,29.10,SW,225,1.2,0.0,81,0.00,CLR,,0.00,WeatherDisplay:10.37,2013-03-30 04:00:00,
2013-03-30 00:05:00,47.5,41.9,29.10,SW,225,0.0,0.0,81,0.00,CLR,,0.00,WeatherDisplay:10.37,2013-03-30 04:05:00,
2013-03-30 00:10:00,47.3,42.1,29.09,SW,225,0.0,0.0,82,0.00,CLR,,0.00,WeatherDisplay:10.37,2013-03-30 04:10:00,
2013-03-30 00:15:00,47.1,41.6,29.09,SW,225,0.0,0.0,81,0.00,CLR,,0.00,WeatherDisplay:10.37,2013-03-30 04:15:00,
2013-03-30 00:20:00,47.1,41.9,29.08,SW,225,0.0,0.0,82,0.00,CLR,,0.00,WeatherDisplay:10.37,2013-03-30 04:20:00,
2013-03-30 00:25:00,47.1,41.9,29.08,SW,225,0.0,0.0,82,0.00,CLR,,0.00,WeatherDisplay:10.37,2013-03-30 04:25:00,
2013-03-30 00:30:00,46.9,42.0,29.09,SW,225,0.0,0.0,83,0.00,CLR,,0.00,WeatherDisplay:10.37,2013-03-30 04:30:00,
2013-03-30 00:35:00,46.9,42.4,29.09,SW,225,0.0,0.0,84,0.00,CLR,,0.00,WeatherDisplay:10.37,2013-03-30 04:35:00,
2013-03-30 00:40:00,46.9,42.4,29.08,SW,225,0.0,0.0,84,0.00,CLR,,0.00,WeatherDisplay:10.37,2013-03-30 04:40:00,
2013-03-30 00:45:00,46.8,42.5,29.09,SW,225,0.0,0.0,85,0.00,CLR,,0.00,WeatherDisplay:10.37,2013-03-30 04:45:00,
2013-03-30 00:50:00,46.9,42.0,29.09,SW,225,0.0,0.0,83,0.00,CLR,,0.00,WeatherDisplay:10.37,2013-03-30 04:50:00,
2013-03-30 00:55:00,46.9,42.4,29.10,SW,225,0.0,0.0,84,0.00,CLR,,0.00,WeatherDisplay:10.37,2013-03-30 04:55:00,
2013-03-30 01:00:00,47.1,42.5,29.09,SW,225,2.3,0.0,84,0.00,CLR,,0.00,WeatherDisplay:10.37,2013-03-30 05:00:00,
2013-03-30 01:05:00,47.1,43.1,29.09,SW,225,0.0,0.0,86,0.00,CLR,,0.00,WeatherDisplay:10.37,2013-03-30 05:05:00,
2013-03-30 01:10:00,46.8,44.8,29.09,SW,225,3.5,0.0,93,0.00,CLR,,0.00,WeatherDisplay:10.37,2013-03-30 05:10:00,
2013-03-30 01:15:00,45.9,45.3,29.08,SW,225,3.5,3.5,98,0.01,RA,,0.01,WeatherDisplay:10.37,2013-03-30 05:15:00,
2013-03-30 01:20:00,45.3,44.8,29.08,SW,225,2.3,0.0,98,0.01,RA,,0.01,WeatherDisplay:10.37,2013-03-30 05:20:00,
2013-03-30 01:25:00,45.3,45.1,29.08,SW,225,1.2,0.0,99,0.01,,,0.01,WeatherDisplay:10.37,2013-03-30 05:25:00,
2013-03-30 01:30:00,45.0,44.7,29.08,SW,225,0.0,0.0,99,0.01,CLR,,0.01,WeatherDisplay:10.37,2013-03-30 05:30:00,
2013-03-30 01:35:00,44.8,44.5,29.08,SW,225,0.0,0.0,99,0.02,RA,,0.02,WeatherDisplay:10.37,2013-03-30 05:35:00,
2013-03-30 01:40:00,44.6,44.3,29.08,SW,225,0.0,0.0,99,0.04,RA,,0.04,WeatherDisplay:10.37,2013-03-30 05:40:00,
2013-03-30 01:45:00,44.4,44.2,29.08,SW,225,0.0,0.0,99,0.04,RA,,0.04,WeatherDisplay:10.37,2013-03-30 05:45:00,
2013-03-30 01:50:00,44.4,44.2,29.07,SW,225,0.0,0.0,99,0.05,RA,,0.05,WeatherDisplay:10.37,2013-03-30 05:50:00,
2013-03-30 01:55:00,44.2,44.0,29.07,SW,225,0.0,0.0,99,0.06,RA,,0.06,WeatherDisplay:10.37,2013-03-30 05:55:00,
2013-03-30 02:00:00,44.2,44.0,29.07,SW,225,0.0,0.0,99,0.07,RA,,0.07,WeatherDisplay:10.37,2013-03-30 06:00:00,
2013-03-30 02:05:00,44.2,44.0,29.07,SW,225,0.0,0.0,99,0.08,RA,,0.08,WeatherDisplay:10.37,2013-03-30 06:05:00,
2013-03-30 02:10:00,44.1,43.8,29.07,SW,225,0.0,0.0,99,0.09,RA,,0.09,WeatherDisplay:10.37,2013-03-30 06:10:00,
2013-03-30 02:15:00,44.1,43.8,29.07,SW,225,0.0,0.0,99,0.08,RA,,0.09,WeatherDisplay:10.37,2013-03-30 06:15:00,
2013-03-30 02:20:00,44.1,43.8,29.07,SW,225,0.0,0.0,99,0.08,CLR,,0.09,WeatherDisplay:10.37,2013-03-30 06:20:00,
2013-03-30 02:25:00,43.9,43.6,29.07,West,270,1.2,0.0,99,0.09,RA,,0.11,WeatherDisplay:10.37,2013-03-30 06:25:00,
2013-03-30 02:30:00,43.9,43.6,29.07,NW,315,2.3,0.0,99,0.11,RA,,0.12,WeatherDisplay:10.37,2013-03-30 06:30:00,
2013-03-30 02:35:00,43.9,43.6,29.07,West,270,1.2,0.0,99,0.11,RA,,0.13,WeatherDisplay:10.37,2013-03-30 06:35:00,
2013-03-30 02:40:00,43.7,43.4,29.08,West,270,1.2,0.0,99,0.09,RA,,0.13,WeatherDisplay:10.37,2013-03-30 06:40:00,
2013-03-30 02:45:00,43.7,43.4,29.08,NW,315,2.3,2.3,99,0.11,RA,,0.14,WeatherDisplay:10.37,2013-03-30 06:45:00,
2013-03-30 02:50:00,43.7,43.4,29.07,NW,315,1.2,0.0,99,0.11,RA,,0.15,WeatherDisplay:10.37,2013-03-30 06:50:00,
2013-03-30 02:55:00,43.7,43.4,29.07,NW,315,1.2,0.0,99,0.09,RA,,0.15,WeatherDisplay:10.37,2013-03-30 06:55:00,
2013-03-30 03:00:00,43.7,43.4,29.07,NW,315,1.2,0.0,99,0.09,RA,,0.17,WeatherDisplay:10.37,2013-03-30 07:00:00,
2013-03-30 03:05:00,43.7,43.4,29.07,NW,315,0.0,0.0,99,0.08,RA,,0.17,WeatherDisplay:10.37,2013-03-30 07:05:00,
2013-03-30 03:10:00,43.5,43.3,29.08,NW,315,1.2,0.0,99,0.08,RA,,0.18,WeatherDisplay:10.37,2013-03-30 07:10:00,
2013-03-30 03:15:00,43.7,43.4,29.07,NW,315,1.2,0.0,99,0.08,RA,,0.18,WeatherDisplay:10.37,2013-03-30 07:15:00,
2013-03-30 03:20:00,43.5,43.3,29.07,NW,315,1.2,0.0,99,0.09,RA,,0.19,WeatherDisplay:10.37,2013-03-30 07:20:00,
2013-03-30 03:25:00,43.5,43.3,29.07,NW,315,0.0,0.0,99,0.08,RA,,0.19,WeatherDisplay:10.37,2013-03-30 07:25:00,
2013-03-30 03:30:00,43.5,43.3,29.07,NW,315,0.0,0.0,99,0.07,,,0.19,WeatherDisplay:10.37,2013-03-30 07:30:00,
2013-03-30 03:35:00,43.5,43.3,29.07,NW,315,0.0,0.0,99,0.06,CLR,,0.19,WeatherDisplay:10.37,2013-03-30 07:35:00,
2013-03-30 03:40:00,43.5,43.3,29.07,NW,315,0.0,0.0,99,0.07,RA,,0.20,WeatherDisplay:10.37,2013-03-30 07:40:00,
2013-03-30 03:45:00,43.5,43.3,29.07,NW,315,0.0,0.0,99,0.06,RA,,0.20,WeatherDisplay:10.37,2013-03-30 07:45:00,
2013-03-30 03:50:00,43.5,43.3,29.07,NW,315,0.0,0.0,99,0.05,CLR,,0.20,WeatherDisplay:10.37,2013-03-30 07:50:00,
2013-03-30 03:55:00,43.5,43.3,29.07,NW,315,1.2,0.0,99,0.05,,,0.20,WeatherDisplay:10.37,2013-03-30 07:55:00,
2013-03-30 04:00:00,43.7,43.4,29.07,NW,315,1.2,0.0,99,0.04,,,0.20,WeatherDisplay:10.37,2013-03-30 08:00:00,
2013-03-30 04:05:00,43.7,43.4,29.07,NW,315,1.2,0.0,99,0.04,,,0.20,WeatherDisplay:10.37,2013-03-30 08:05:00,
2013-03-30 04:10:00,43.7,43.4,29.07,NW,315,0.0,0.0,99,0.05,RA,,0.22,WeatherDisplay:10.37,2013-03-30 08:10:00,
2013-03-30 04:15:00,43.7,43.4,29.07,NW,315,0.0,0.0,99,0.05,RA,,0.22,WeatherDisplay:10.37,2013-03-30 08:15:00,
2013-03-30 04:20:00,43.7,43.4,29.07,NW,315,0.0,0.0,99,0.04,,,0.22,WeatherDisplay:10.37,2013-03-30 08:20:00,
2013-03-30 04:25:00,43.7,43.4,29.07,NW,315,0.0,0.0,99,0.05,RA,,0.24,WeatherDisplay:10.37,2013-03-30 08:25:00,
2013-03-30 04:30:00,43.7,43.4,29.06,NW,315,0.0,0.0,99,0.06,RA,,0.25,WeatherDisplay:10.37,2013-03-30 08:30:00,
2013-03-30 04:35:00,43.5,43.3,29.07,NW,315,0.0,0.0,99,0.06,RA,,0.25,WeatherDisplay:10.37,2013-03-30 08:35:00,
2013-03-30 04:40:00,43.7,43.4,29.07,NW,315,0.0,0.0,99,0.06,RA,,0.26,WeatherDisplay:10.37,2013-03-30 08:40:00,
2013-03-30 04:45:00,43.7,43.4,29.07,NW,315,0.0,0.0,99,0.07,RA,,0.27,WeatherDisplay:10.37,2013-03-30 08:45:00,
2013-03-30 04:50:00,43.7,43.4,29.07,NW,315,0.0,0.0,99,0.07,RA,,0.27,WeatherDisplay:10.37,2013-03-30 08:50:00,
2013-03-30 04:55:00,43.7,43.4,29.07,NW,315,0.0,0.0,99,0.08,RA,,0.28,WeatherDisplay:10.37,2013-03-30 08:55:00,
2013-03-30 05:00:00,43.7,43.4,29.07,NW,315,0.0,0.0,99,0.09,RA,,0.30,WeatherDisplay:10.37,2013-03-30 09:00:00,
2013-03-30 05:05:00,43.7,43.4,29.07,NW,315,0.0,0.0,99,0.09,RA,,0.30,WeatherDisplay:10.37,2013-03-30 09:05:00,
2013-03-30 05:10:00,43.7,43.4,29.07,NW,315,0.0,0.0,99,0.09,RA,,0.32,WeatherDisplay:10.37,2013-03-30 09:10:00,
2013-03-30 05:15:00,43.7,43.4,29.06,NW,315,0.0,0.0,99,0.09,RA,,0.32,WeatherDisplay:10.37,2013-03-30 09:15:00,
2013-03-30 05:20:00,43.7,43.4,29.07,NW,315,0.0,0.0,99,0.09,,,0.32,WeatherDisplay:10.37,2013-03-30 09:20:00,
2013-03-30 05:25:00,43.7,43.4,29.07,NW,315,0.0,0.0,99,0.09,RA,,0.33,WeatherDisplay:10.37,2013-03-30 09:25:00,
2013-03-30 05:30:00,43.7,43.4,29.07,NW,315,0.0,0.0,99,0.09,RA,,0.34,WeatherDisplay:10.37,2013-03-30 09:30:00,
2013-03-30 05:34:00,43.7,43.4,29.07,NW,315,0.0,0.0,99,0.09,RA,,0.34,WeatherDisplay:10.37,2013-03-30 09:34:00,
2013-03-30 05:39:00,43.7,43.4,29.06,NE,45,1.2,1.2,99,0.08,RA,,0.34,WeatherDisplay:10.37,2013-03-30 09:39:00,
2013-03-30 05:44:00,43.7,43.4,29.06,NE,45,0.0,0.0,99,0.08,CLR,,0.34,WeatherDisplay:10.37,2013-03-30 09:44:00,
2013-03-30 05:49:00,43.7,43.4,29.08,West,270,0.0,0.0,99,0.08,RA,,0.35,WeatherDisplay:10.37,2013-03-30 09:49:00,
2013-03-30 05:54:00,43.9,43.6,29.08,NW,315,0.0,0.0,99,0.07,RA,,0.35,WeatherDisplay:10.37,2013-03-30 09:54:00,
2013-03-30 05:59:00,43.9,43.6,29.07,NW,315,0.0,0.0,99,0.06,CLR,,0.35,WeatherDisplay:10.37,2013-03-30 09:59:00,
2013-03-30 06:04:00,43.9,43.6,29.07,NW,315,0.0,0.0,99,0.06,CLR,,0.35,WeatherDisplay:10.37,2013-03-30 10:04:00,
2013-03-30 06:09:00,43.9,43.6,29.07,NW,315,0.0,0.0,99,0.06,RA,,0.37,WeatherDisplay:10.37,2013-03-30 10:09:00,
2013-03-30 06:14:00,43.9,43.6,29.07,NW,315,0.0,0.0,99,0.05,RA,,0.37,WeatherDisplay:10.37,2013-03-30 10:14:00,
2013-03-30 06:19:00,43.9,43.6,29.07,NW,315,0.0,0.0,99,0.05,CLR,,0.37,WeatherDisplay:10.37,2013-03-30 10:19:00,
2013-03-30 06:28:00,43.9,43.6,29.07,North,0,0.0,0.0,99,0.04,CLR,,0.09,WeatherDisplay:10.37,2013-03-30 10:28:00,
2013-03-30 06:33:00,43.9,43.6,29.06,North,0,2.3,2.3,99,0.04,RA,,0.09,WeatherDisplay:10.37,2013-03-30 10:33:00,
2013-03-30 06:38:00,43.9,43.6,29.06,North,0,1.2,1.2,99,0.02,RA,,0.09,WeatherDisplay:10.37,2013-03-30 10:38:00,
2013-03-30 06:43:00,43.9,43.6,29.06,North,0,0.0,0.0,99,0.02,CLR,,0.09,WeatherDisplay:10.37,2013-03-30 10:43:00,
2013-03-30 06:48:00,43.9,43.6,29.06,North,0,0.0,0.0,99,0.02,CLR,,0.09,WeatherDisplay:10.37,2013-03-30 10:48:00,
2013-03-30 06:53:00,43.9,43.6,29.06,North,0,0.0,0.0,99,0.01,CLR,,0.09,WeatherDisplay:10.37,2013-03-30 10:53:00,
2013-03-30 06:58:00,43.9,43.6,29.07,North,0,1.2,0.0,99,0.01,CLR,,0.09,WeatherDisplay:10.37,2013-03-30 10:58:00,
2013-03-30 07:03:00,43.9,43.6,29.06,North,0,0.0,0.0,99,0.01,CLR,,0.09,WeatherDisplay:10.37,2013-03-30 11:03:00,
2013-03-30 07:08:00,43.9,43.6,29.06,North,0,1.2,0.0,99,0.01,CLR,,0.09,WeatherDisplay:10.37,2013-03-30 11:08:00,
2013-03-30 07:13:00,43.9,43.6,29.06,North,0,0.0,0.0,99,0.00,,,0.09,WeatherDisplay:10.37,2013-03-30 11:13:00,
2013-03-30 07:19:00,43.9,43.6,29.07,North,0,0.0,0.0,99,0.00,CLR,,0.09,WeatherDisplay:10.37,2013-03-30 11:19:00,
2013-03-30 07:24:00,43.9,43.6,29.06,North,0,0.0,0.0,99,0.00,CLR,,0.09,WeatherDisplay:10.37,2013-03-30 11:24:00,
2013-03-30 07:29:00,43.9,43.6,29.07,NW,315,0.0,0.0,99,0.00,CLR,,0.09,WeatherDisplay:10.37,2013-03-30 11:29:00,
2013-03-30 07:34:00,43.9,43.6,29.07,NW,315,1.2,0.0,99,0.00,CLR,,0.09,WeatherDisplay:10.37,2013-03-30 11:34:00,
2013-03-30 07:39:00,43.9,43.6,29.07,NW,315,0.0,0.0,99,0.00,CLR,,0.09,WeatherDisplay:10.37,2013-03-30 11:39:00,
2013-03-30 07:44:00,43.9,43.6,29.07,NW,315,1.2,0.0,99,0.00,CLR,,0.09,WeatherDisplay:10.37,2013-03-30 11:44:00,
2013-03-30 07:49:00,44.1,43.8,29.07,NW,315,0.0,0.0,99,0.00,CLR,,0.09,WeatherDisplay:10.37,2013-03-30 11:49:00,
2013-03-30 07:54:00,44.1,43.8,29.07,NW,315,1.2,0.0,99,0.00,CLR,,0.09,WeatherDisplay:10.37,2013-03-30 11:54:00,
2013-03-30 07:59:00,44.2,44.0,29.07,NW,315,0.0,0.0,99,0.00,CLR,,0.09,WeatherDisplay:10.37,2013-03-30 11:59:00,
2013-03-30 08:04:00,44.4,44.2,29.07,NW,315,0.0,0.0,99,0.00,CLR,,0.09,WeatherDisplay:10.37,2013-03-30 12:04:00,
2013-03-30 08:09:00,44.6,44.3,29.07,North,0,0.0,0.0,99,0.00,CLR,,0.09,WeatherDisplay:10.37,2013-03-30 12:09:00,
2013-03-30 08:14:00,44.8,44.5,29.07,NE,45,3.5,3.5,99,0.00,CLR,,0.09,WeatherDisplay:10.37,2013-03-30 12:14:00,
2013-03-30 08:19:00,45.0,44.7,29.08,NW,315,1.2,0.0,99,0.00,CLR,,0.09,WeatherDisplay:10.37,2013-03-30 12:19:00,
2013-03-30 08:24:00,45.0,44.7,29.08,NW,315,1.2,0.0,99,0.00,CLR,,0.09,WeatherDisplay:10.37,2013-03-30 12:24:00,
2013-03-30 08:29:00,45.1,44.9,29.08,NW,315,0.0,0.0,99,0.00,CLR,,0.09,WeatherDisplay:10.37,2013-03-30 12:29:00,
2013-03-30 08:34:00,45.3,45.1,29.08,NW,315,1.2,0.0,99,0.00,CLR,,0.09,WeatherDisplay:10.37,2013-03-30 12:34:00,
2013-03-30 08:39:00,45.5,45.2,29.09,NE,45,1.2,0.0,99,0.00,CLR,,0.09,WeatherDisplay:10.37,2013-03-30 12:39:00,
2013-03-30 08:44:00,45.9,45.6,29.08,NW,315,0.0,0.0,99,0.00,CLR,,0.09,WeatherDisplay:10.37,2013-03-30 12:44:00,
2013-03-30 08:49:00,46.2,46.0,29.09,North,0,2.3,2.3,99,0.00,CLR,,0.09,WeatherDisplay:10.37,2013-03-30 12:49:00,
2013-03-30 08:54:00,47.1,46.9,29.08,North,0,2.3,0.0,99,0.00,CLR,,0.09,WeatherDisplay:10.37,2013-03-30 12:54:00,
2013-03-30 08:59:00,47.7,47.4,29.08,North,0,3.5,0.0,99,0.00,CLR,,0.09,WeatherDisplay:10.37,2013-03-30 12:59:00,
2013-03-30 09:04:00,47.7,47.4,29.08,NE,45,2.3,2.3,99,0.00,CLR,,0.09,WeatherDisplay:10.37,2013-03-30 13:04:00,
2013-03-30 09:09:00,47.5,47.2,29.08,North,0,2.3,2.3,99,0.00,CLR,,0.09,WeatherDisplay:10.37,2013-03-30 13:09:00,
2013-03-30 09:14:00,47.5,47.2,29.08,North,0,4.6,0.0,99,0.00,CLR,,0.09,WeatherDisplay:10.37,2013-03-30 13:14:00,
2013-03-30 09:19:00,47.7,47.4,29.08,North,0,3.5,3.5,99,0.00,CLR,,0.09,WeatherDisplay:10.37,2013-03-30 13:19:00,
2013-03-30 09:24:00,48.0,47.8,29.08,NE,45,3.5,3.5,99,0.00,CLR,,0.09,WeatherDisplay:10.37,2013-03-30 13:24:00,
2013-03-30 09:29:00,47.8,47.6,29.09,North,0,3.5,3.5,99,0.00,CLR,,0.09,WeatherDisplay:10.37,2013-03-30 13:29:00,
2013-03-30 09:34:00,48.0,47.8,29.08,North,0,3.5,0.0,99,0.00,CLR,,0.09,WeatherDisplay:10.37,2013-03-30 13:34:00,
2013-03-30 09:39:00,48.0,47.8,29.08,North,0,2.3,0.0,99,0.00,CLR,,0.09,WeatherDisplay:10.37,2013-03-30 13:39:00,
2013-03-30 09:44:00,48.4,48.1,29.08,North,0,2.3,0.0,99,0.00,CLR,,0.09,WeatherDisplay:10.37,2013-03-30 13:44:00,
2013-03-30 09:49:00,48.7,48.5,29.08,North,0,2.3,2.3,99,0.00,CLR,,0.09,WeatherDisplay:10.37,2013-03-30 13:49:00,
2013-03-30 09:54:00,49.5,49.2,29.08,North,0,4.6,4.6,99,0.00,CLR,,0.09,WeatherDisplay:10.37,2013-03-30 13:54:00,
2013-03-30 09:59:00,50.9,50.6,29.08,West,270,3.5,3.5,99,0.00,CLR,,0.09,WeatherDisplay:10.37,2013-03-30 13:59:00,
2013-03-30 10:04:00,51.6,51.3,29.08,SW,225,3.5,0.0,99,0.00,CLR,,0.09,WeatherDisplay:10.37,2013-03-30 14:04:00,
2013-03-30 10:09:00,52.2,51.9,29.08,NW,315,2.3,2.3,99,0.00,CLR,,0.09,WeatherDisplay:10.37,2013-03-30 14:09:00,
2013-03-30 10:14:00,52.3,51.2,29.08,NE,45,4.6,4.6,96,0.00,CLR,,0.09,WeatherDisplay:10.37,2013-03-30 14:14:00,
2013-03-30 10:19:00,52.5,50.6,29.08,North,0,4.6,4.6,93,0.00,CLR,,0.09,WeatherDisplay:10.37,2013-03-30 14:19:00,
2013-03-30 10:24:00,52.9,50.3,29.08,NE,45,4.6,4.6,91,0.00,CLR,,0.09,WeatherDisplay:10.37,2013-03-30 14:24:00,
2013-03-30 10:29:00,53.1,50.5,29.08,NE,45,3.5,3.5,91,0.00,CLR,,0.09,WeatherDisplay:10.37,2013-03-30 14:29:00,
2013-03-30 10:34:00,53.1,49.6,29.08,NE,45,5.8,5.8,88,0.00,CLR,,0.09,WeatherDisplay:10.37,2013-03-30 14:34:00,
2013-03-30 10:39:00,53.1,49.9,29.08,East,90,2.3,2.3,89,0.00,CLR,,0.09,WeatherDisplay:10.37,2013-03-30 14:39:00,
2013-03-30 10:44:00,53.2,49.5,29.08,North,0,5.8,5.8,87,0.00,CLR,,0.09,WeatherDisplay:10.37,2013-03-30 14:44:00,
2013-03-30 10:49:00,53.8,50.0,29.08,NW,315,6.9,6.9,87,0.00,CLR,,0.09,WeatherDisplay:10.37,2013-03-30 14:49:00,
2013-03-30 10:54:00,53.8,49.4,29.08,SE,135,5.8,5.8,85,0.00,CLR,,0.09,WeatherDisplay:10.37,2013-03-30 14:54:00,
2013-03-30 10:59:00,53.6,48.9,29.08,SE,135,3.5,3.8,84,0.00,CLR,,0.09,WeatherDisplay:10.37,2013-03-30 14:59:00,
2013-03-30 11:04:00,54.5,50.4,29.08,SW,225,4.6,4.6,86,0.00,CLR,,0.09,WeatherDisplay:10.37,2013-03-30 15:04:00,
2013-03-30 11:09:00,55.9,49.5,29.08,NW,315,6.9,6.9,79,0.00,CLR,,0.09,WeatherDisplay:10.37,2013-03-30 15:09:00,
2013-03-30 11:14:00,56.8,50.4,29.07,East,90,4.6,4.6,79,0.00,CLR,,0.09,WeatherDisplay:10.37,2013-03-30 15:14:00,
2013-03-30 11:19:00,57.6,50.0,29.07,East,90,4.6,4.6,76,0.00,CLR,,0.09,WeatherDisplay:10.37,2013-03-30 15:19:00,
2013-03-30 11:24:00,58.5,50.9,29.07,NW,315,4.6,4.6,76,0.00,CLR,,0.09,WeatherDisplay:10.37,2013-03-30 15:24:00,
2013-03-30 11:29:00,59.0,50.0,29.06,East,90,5.8,5.8,72,0.00,CLR,,0.09,WeatherDisplay:10.37,2013-03-30 15:29:00,
2013-03-30 11:34:00,59.0,49.2,29.07,North,0,5.8,5.8,70,0.00,CLR,,0.09,WeatherDisplay:10.37,2013-03-30 15:34:00,
2013-03-30 11:39:00,59.5,50.1,29.07,South,180,3.5,3.5,71,0.00,CLR,,0.09,WeatherDisplay:10.37,2013-03-30 15:39:00,
2013-03-30 11:44:00,59.7,49.1,29.06,NE,45,4.6,4.6,68,0.00,CLR,,0.09,WeatherDisplay:10.37,2013-03-30 15:44:00,
2013-03-30 11:49:00,60.6,48.8,29.06,ENE,68,6.9,6.9,65,0.00,CLR,,0.09,WeatherDisplay:10.37,2013-03-30 15:49:00,
2013-03-30 11:54:00,60.8,49.8,29.06,NW,315,3.5,0.0,67,0.00,CLR,,0.09,WeatherDisplay:10.37,2013-03-30 15:54:00,
2013-03-30 11:59:00,61.5,50.5,29.06,North,0,3.5,3.5,67,0.00,CLR,,0.09,WeatherDisplay:10.37,2013-03-30 15:59:00,
2013-03-30 12:04:00,60.8,48.5,29.06,NE,45,4.6,4.6,64,0.00,CLR,,0.09,WeatherDisplay:10.37,2013-03-30 16:04:00,
2013-03-30 12:09:00,60.8,49.4,29.06,NE,45,3.5,3.5,66,0.00,CLR,,0.09,WeatherDisplay:10.37,2013-03-30 16:09:00,
2013-03-30 12:14:00,61.5,50.5,29.06,SW,225,3.5,3.5,67,0.00,CLR,,0.09,WeatherDisplay:10.37,2013-03-30 16:14:00,
2013-03-30 12:19:00,62.6,49.8,29.06,SW,225,3.5,3.5,63,0.00,CLR,,0.09,WeatherDisplay:10.37,2013-03-30 16:19:00,
2013-03-30 12:24:00,62.2,48.6,29.06,NE,45,5.8,5.8,61,0.00,CLR,,0.09,WeatherDisplay:10.37,2013-03-30 16:24:00,
2013-03-30 12:29:00,61.9,48.3,29.06,West,270,3.5,3.5,61,0.00,CLR,,0.09,WeatherDisplay:10.37,2013-03-30 16:29:00,
2013-03-30 12:34:00,62.1,49.7,29.05,SW,225,3.5,0.0,64,0.00,CLR,,0.09,WeatherDisplay:10.37,2013-03-30 16:34:00,
2013-03-30 12:39:00,62.2,48.2,29.05,SW,225,5.8,5.8,60,0.00,CLR,,0.09,WeatherDisplay:10.37,2013-03-30 16:39:00,
2013-03-30 12:44:00,63.0,48.9,29.05,NW,315,3.5,3.5,60,0.00,CLR,,0.09,WeatherDisplay:10.37,2013-03-30 16:44:00,
2013-03-30 12:49:00,63.7,50.0,29.05,North,0,3.5,0.0,61,0.00,CLR,,0.09,WeatherDisplay:10.37,2013-03-30 16:49:00,
2013-03-30 12:54:00,63.5,48.0,29.04,WNW,292,3.5,3.5,57,0.00,CLR,,0.09,WeatherDisplay:10.37,2013-03-30 16:54:00,
2013-03-30 12:59:00,63.7,49.1,29.04,NW,315,3.5,3.5,59,0.00,CLR,,0.09,WeatherDisplay:10.37,2013-03-30 16:59:00,
2013-03-30 13:04:00,63.1,48.1,29.04,SW,225,3.5,3.5,58,0.00,CLR,,0.09,WeatherDisplay:10.37,2013-03-30 17:04:00,
2013-03-30 13:09:00,62.4,47.4,29.03,NW,315,2.3,2.3,58,0.00,CLR,,0.09,WeatherDisplay:10.37,2013-03-30 17:09:00,
2013-03-30 13:14:00,63.0,47.9,29.04,West,270,5.8,0.0,58,0.00,CLR,,0.09,WeatherDisplay:10.37,2013-03-30 17:14:00,
2013-03-30 13:19:00,63.1,48.6,29.04,NW,315,3.5,3.5,59,0.00,CLR,,0.09,WeatherDisplay:10.37,2013-03-30 17:19:00,
2013-03-30 13:24:00,63.7,47.7,29.03,WNW,292,6.9,6.9,56,0.00,CLR,,0.09,WeatherDisplay:10.37,2013-03-30 17:24:00,
2013-03-30 13:29:00,62.2,47.3,29.03,West,270,4.6,4.6,58,0.00,CLR,,0.09,WeatherDisplay:10.37,2013-03-30 17:29:00,
2013-03-30 13:34:00,62.6,49.0,29.02,NW,315,5.8,5.8,61,0.00,CLR,,0.09,WeatherDisplay:10.37,2013-03-30 17:34:00,
2013-03-30 13:39:00,63.3,48.7,29.02,NE,45,4.6,4.6,59,0.00,CLR,,0.09,WeatherDisplay:10.37,2013-03-30 17:39:00,
2013-03-30 13:44:00,63.1,47.7,29.02,NW,315,5.8,5.8,57,0.00,CLR,,0.09,WeatherDisplay:10.37,2013-03-30 17:44:00,
2013-03-30 13:49:00,63.9,47.9,29.02,West,270,3.5,3.5,56,0.00,CLR,,0.09,WeatherDisplay:10.37,2013-03-30 17:49:00,
2013-03-30 13:54:00,64.0,49.9,29.02,NW,315,3.5,3.5,60,0.00,CLR,,0.09,WeatherDisplay:10.37,2013-03-30 17:54:00,
2013-03-30 13:59:00,64.2,50.5,29.01,South,180,3.5,3.5,61,0.00,CLR,,0.09,WeatherDisplay:10.37,2013-03-30 17:59:00,
2013-03-30 14:04:00,63.3,48.7,29.01,North,0,3.5,0.0,59,0.00,CLR,,0.09,WeatherDisplay:10.37,2013-03-30 18:04:00,
2013-03-30 14:09:00,64.2,49.1,29.01,SW,225,3.5,3.5,58,0.00,CLR,,0.09,WeatherDisplay:10.37,2013-03-30 18:09:00,
2013-03-30 14:14:00,64.8,49.6,29.00,NW,315,3.5,3.5,58,0.00,CLR,,0.09,WeatherDisplay:10.37,2013-03-30 18:14:00,
2013-03-30 14:19:00,64.9,49.3,29.01,West,270,4.6,0.0,57,0.00,CLR,,0.09,WeatherDisplay:10.37,2013-03-30 18:19:00,
2013-03-30 14:24:00,64.6,49.0,29.01,West,270,8.1,8.1,57,0.00,CLR,,0.09,WeatherDisplay:10.37,2013-03-30 18:24:00,
2013-03-30 14:29:00,65.1,50.9,29.00,SW,225,2.3,0.0,60,0.00,CLR,,0.09,WeatherDisplay:10.37,2013-03-30 18:29:00,
2013-03-30 14:34:00,65.1,49.0,29.01,WNW,292,6.9,6.9,56,0.00,CLR,,0.09,WeatherDisplay:10.37,2013-03-30 18:34:00,
2013-03-30 14:39:00,65.1,48.5,29.00,NW,315,5.8,5.8,55,0.00,CLR,,0.09,WeatherDisplay:10.37,2013-03-30 18:39:00,
2013-03-30 14:44:00,64.4,47.9,29.00,South,180,2.3,2.3,55,0.00,CLR,,0.09,WeatherDisplay:10.37,2013-03-30 18:44:00,
2013-03-30 14:49:00,65.1,49.5,29.00,NW,315,8.1,8.1,57,0.00,CLR,,0.09,WeatherDisplay:10.37,2013-03-30 18:49:00,
2013-03-30 14:54:00,64.8,48.7,29.00,NW,315,5.8,5.8,56,0.00,CLR,,0.09,WeatherDisplay:10.37,2013-03-30 18:54:00,
2013-03-30 14:59:00,65.1,49.5,28.99,SW,225,4.6,4.6,57,0.00,CLR,,0.09,WeatherDisplay:10.37,2013-03-30 18:59:00,
2013-03-30 15:04:00,66.0,49.9,28.99,West,270,4.6,4.6,56,0.00,CLR,,0.09,WeatherDisplay:10.37,2013-03-30 19:04:00,
2013-03-30 15:09:00,66.4,51.2,28.99,NW,315,2.3,0.0,58,0.00,CLR,,0.09,WeatherDisplay:10.37,2013-03-30 19:09:00,
2013-03-30 15:14:00,66.7,50.5,28.99,NW,315,5.8,5.8,56,0.00,CLR,,0.09,WeatherDisplay:10.37,2013-03-30 19:14:00,
2013-03-30 15:19:00,66.9,48.7,28.98,NW,315,2.3,2.3,52,0.00,CLR,,0.09,WeatherDisplay:10.37,2013-03-30 19:19:00,
2013-03-30 15:24:00,68.2,50.4,28.98,SE,135,1.2,0.0,53,0.00,CLR,,0.09,WeatherDisplay:10.37,2013-03-30 19:24:00,
2013-03-30 15:29:00,69.4,51.0,28.98,SSW,202,1.2,1.6,52,0.00,CLR,,0.09,WeatherDisplay:10.37,2013-03-30 19:29:00,
2013-03-30 15:34:00,68.7,50.9,28.98,SW,225,3.5,0.0,53,0.00,CLR,,0.09,WeatherDisplay:10.37,2013-03-30 19:34:00,
2013-03-30 15:39:00,68.7,49.3,28.98,SW,225,3.5,3.5,50,0.00,CLR,,0.09,WeatherDisplay:10.37,2013-03-30 19:39:00,
2013-03-30 15:44:00,67.3,48.5,28.98,SW,225,3.5,0.0,51,0.00,CLR,,0.09,WeatherDisplay:10.37,2013-03-30 19:44:00,
2013-03-30 15:49:00,66.7,49.1,28.97,SW,225,5.8,5.8,53,0.00,CLR,,0.09,WeatherDisplay:10.37,2013-03-30 19:49:00,
2013-03-30 15:54:00,66.9,48.7,28.97,West,270,6.9,0.0,52,0.00,CLR,,0.09,WeatherDisplay:10.37,2013-03-30 19:54:00,
2013-03-30 15:59:00,66.9,48.7,28.97,NW,315,4.6,0.0,52,0.00,CLR,,0.09,WeatherDisplay:10.37,2013-03-30 19:59:00,
2013-03-30 16:04:00,68.4,49.5,28.97,South,180,2.3,2.3,51,0.00,CLR,,0.09,WeatherDisplay:10.37,2013-03-30 20:04:00,
2013-03-30 16:09:00,68.0,48.1,28.97,SE,135,4.6,4.6,49,0.00,CLR,,0.09,WeatherDisplay:10.37,2013-03-30 20:09:00,
2013-03-30 16:14:00,67.1,47.8,28.97,North,0,1.2,0.0,50,0.00,CLR,,0.09,WeatherDisplay:10.37,2013-03-30 20:14:00,
2013-03-30 16:19:00,66.0,47.9,28.97,West,270,1.2,0.0,52,0.00,CLR,,0.09,WeatherDisplay:10.37,2013-03-30 20:19:00,
2013-03-30 16:24:00,65.8,49.7,28.97,SW,225,2.3,2.3,56,0.00,CLR,,0.09,WeatherDisplay:10.37,2013-03-30 20:24:00,
2013-03-30 16:29:00,65.8,48.2,28.96,SW,225,3.5,0.0,53,0.00,CLR,,0.09,WeatherDisplay:10.37,2013-03-30 20:29:00,
2013-03-30 16:34:00,67.5,49.2,28.96,NW,315,3.5,0.0,52,0.00,CLR,,0.09,WeatherDisplay:10.37,2013-03-30 20:34:00,
2013-03-30 16:39:00,68.0,49.2,28.96,NW,315,4.6,4.6,51,0.00,CLR,,0.09,WeatherDisplay:10.37,2013-03-30 20:39:00,
2013-03-30 16:44:00,66.9,48.2,28.96,NW,315,5.8,5.8,51,0.00,CLR,,0.09,WeatherDisplay:10.37,2013-03-30 20:44:00,
2013-03-30 16:49:00,66.4,48.2,28.96,West,270,1.2,0.0,52,0.00,CLR,,0.09,WeatherDisplay:10.37,2013-03-30 20:49:00,
2013-03-30 16:54:00,66.6,47.9,28.96,NW,315,3.5,3.5,51,0.00,CLR,,0.09,WeatherDisplay:10.37,2013-03-30 20:54:00,
2013-03-30 16:59:00,67.8,49.5,28.96,SW,225,2.3,0.0,52,0.00,CLR,,0.09,WeatherDisplay:10.37,2013-03-30 20:59:00,
2013-03-30 17:04:00,67.5,48.7,28.96,NW,315,5.8,5.8,51,0.00,CLR,,0.09,WeatherDisplay:10.37,2013-03-30 21:04:00,
2013-03-30 17:09:00,67.1,49.9,28.95,SW,225,4.6,4.6,54,0.00,CLR,,0.09,WeatherDisplay:10.37,2013-03-30 21:09:00,
2013-03-30 17:14:00,67.1,48.9,28.95,SW,225,3.5,0.0,52,0.00,CLR,,0.09,WeatherDisplay:10.37,2013-03-30 21:14:00,
2013-03-30 17:19:00,66.2,48.0,28.95,SW,225,3.5,3.5,52,0.00,CLR,,0.09,WeatherDisplay:10.37,2013-03-30 21:19:00,
2013-03-30 17:24:00,65.1,47.1,28.94,SW,225,2.3,0.0,52,0.00,CLR,,0.09,WeatherDisplay:10.37,2013-03-30 21:24:00,
2013-03-30 17:29:00,64.9,47.9,28.95,SW,225,0.0,0.7,54,0.00,CLR,,0.09,WeatherDisplay:10.37,2013-03-30 21:29:00,
2013-03-30 17:34:00,64.4,47.4,28.95,NW,315,2.3,0.0,54,0.00,CLR,,0.09,WeatherDisplay:10.37,2013-03-30 21:34:00,
2013-03-30 17:39:00,64.2,47.7,28.95,SW,225,2.3,0.0,55,0.00,CLR,,0.09,WeatherDisplay:10.37,2013-03-30 21:39:00,
2013-03-30 17:44:00,64.4,47.9,28.95,NW,315,1.2,0.0,55,0.00,CLR,,0.09,WeatherDisplay:10.37,2013-03-30 21:44:00,
2013-03-30 17:49:00,64.4,47.9,28.95,West,270,1.2,0.0,55,0.00,CLR,,0.09,WeatherDisplay:10.37,2013-03-30 21:49:00,
2013-03-30 17:54:00,64.4,48.4,28.94,NW,315,1.2,0.0,56,0.00,CLR,,0.09,WeatherDisplay:10.37,2013-03-30 21:54:00,
2013-03-30 17:59:00,64.4,47.9,28.94,NW,315,2.3,0.0,55,0.00,CLR,,0.09,WeatherDisplay:10.37,2013-03-30 21:59:00,
2013-03-30 18:04:00,64.2,48.2,28.94,NW,315,1.2,0.0,56,0.00,CLR,,0.09,WeatherDisplay:10.37,2013-03-30 22:04:00,
2013-03-30 18:09:00,64.2,48.7,28.95,NW,315,1.2,0.0,57,0.00,CLR,,0.09,WeatherDisplay:10.37,2013-03-30 22:09:00,
2013-03-30 18:14:00,64.2,48.2,28.94,West,270,1.2,0.0,56,0.00,CLR,,0.09,WeatherDisplay:10.37,2013-03-30 22:14:00,
2013-03-30 18:19:00,64.6,48.5,28.94,SW,225,1.2,0.0,56,0.00,CLR,,0.09,WeatherDisplay:10.37,2013-03-30 22:19:00,
2013-03-30 18:24:00,64.9,47.9,28.95,SW,225,1.2,0.0,54,0.00,CLR,,0.09,WeatherDisplay:10.37,2013-03-30 22:24:00,
2013-03-30 18:29:00,64.6,48.0,28.95,SW,225,1.2,0.0,55,0.00,CLR,,0.09,WeatherDisplay:10.37,2013-03-30 22:29:00,
2013-03-30 18:34:00,64.4,48.4,28.94,SW,225,0.0,0.0,56,0.00,CLR,,0.09,WeatherDisplay:10.37,2013-03-30 22:34:00,
2013-03-30 18:39:00,64.0,49.0,28.95,SW,225,0.0,0.0,58,0.00,CLR,,0.09,WeatherDisplay:10.37,2013-03-30 22:39:00,
2013-03-30 18:44:00,63.3,48.7,28.95,SW,225,0.0,0.0,59,0.00,CLR,,0.09,WeatherDisplay:10.37,2013-03-30 22:44:00,
2013-03-30 18:49:00,62.6,48.5,28.94,SW,225,1.2,0.0,60,0.00,CLR,,0.09,WeatherDisplay:10.37,2013-03-30 22:49:00,
2013-03-30 18:54:00,61.9,49.1,28.95,SW,225,0.0,0.0,63,0.00,CLR,,0.09,WeatherDisplay:10.37,2013-03-30 22:54:00,
2013-03-30 18:59:00,61.3,51.1,28.94,SW,225,0.0,0.0,69,0.00,CLR,,0.09,WeatherDisplay:10.37,2013-03-30 22:59:00,
2013-03-30 19:04:00,60.4,50.2,28.94,SW,225,1.2,0.0,69,0.00,CLR,,0.09,WeatherDisplay:10.37,2013-03-30 23:04:00,
2013-03-30 19:09:00,59.9,50.5,28.94,SW,225,1.2,0.0,71,0.00,CLR,,0.09,WeatherDisplay:10.37,2013-03-30 23:09:00,
2013-03-30 19:14:00,59.2,50.2,28.94,SW,225,0.0,0.0,72,0.00,CLR,,0.09,WeatherDisplay:10.37,2013-03-30 23:14:00,
2013-03-30 19:19:00,58.3,49.7,28.95,SW,225,0.0,0.0,73,0.00,CLR,,0.09,WeatherDisplay:10.37,2013-03-30 23:19:00,
2013-03-30 19:24:00,57.6,49.3,28.94,SW,225,0.0,0.0,74,0.00,CLR,,0.09,WeatherDisplay:10.37,2013-03-30 23:24:00,
2013-03-30 19:29:00,56.8,49.0,28.94,SW,225,0.0,0.0,75,0.00,CLR,,0.09,WeatherDisplay:10.37,2013-03-30 23:29:00,
2013-03-30 19:34:00,56.5,49.0,28.94,SW,225,0.0,0.0,76,0.00,CLR,,0.09,WeatherDisplay:10.37,2013-03-30 23:34:00,
2013-03-30 19:39:00,55.8,49.0,28.94,SW,225,0.0,0.0,78,0.00,CLR,,0.09,WeatherDisplay:10.37,2013-03-30 23:39:00,
2013-03-30 19:44:00,55.2,48.5,28.94,SW,225,0.0,0.0,78,0.00,CLR,,0.09,WeatherDisplay:10.37,2013-03-30 23:44:00,
2013-03-30 19:49:00,54.7,48.6,28.94,SW,225,0.0,0.0,80,0.00,CLR,,0.09,WeatherDisplay:10.37,2013-03-30 23:49:00,
2013-03-30 19:54:00,54.3,48.6,28.94,SW,225,0.0,0.0,81,0.00,CLR,,0.09,WeatherDisplay:10.37,2013-03-30 23:54:00,
2013-03-30 19:59:00,53.8,48.4,28.94,SW,225,0.0,0.0,82,0.00,CLR,,0.09,WeatherDisplay:10.37,2013-03-30 23:59:00,
2013-03-30 20:04:00,53.2,48.5,28.94,SW,225,0.0,0.0,84,0.00,CLR,,0.09,WeatherDisplay:10.37,2013-03-31 00:04:00,
2013-03-30 20:09:00,53.1,48.7,28.94,SW,225,0.0,0.0,85,0.00,CLR,,0.09,WeatherDisplay:10.37,2013-03-31 00:09:00,
2013-03-30 20:14:00,52.5,48.1,28.94,SW,225,0.0,0.0,85,0.00,CLR,,0.09,WeatherDisplay:10.37,2013-03-31 00:14:00,
2013-03-30 20:19:00,52.3,48.6,28.93,SW,225,0.0,0.0,87,0.00,CLR,,0.09,WeatherDisplay:10.37,2013-03-31 00:19:00,
2013-03-30 20:24:00,52.0,48.2,28.94,SW,225,0.0,0.0,87,0.00,CLR,,0.09,WeatherDisplay:10.37,2013-03-31 00:24:00,
2013-03-30 20:29:00,51.6,48.2,28.94,SW,225,0.0,0.0,88,0.00,CLR,,0.09,WeatherDisplay:10.37,2013-03-31 00:29:00,
2013-03-30 20:34:00,51.3,48.1,28.93,SW,225,0.0,0.0,89,0.00,CLR,,0.09,WeatherDisplay:10.37,2013-03-31 00:34:00,
2013-03-30 20:39:00,51.1,48.2,28.94,SW,225,0.0,0.0,90,0.00,CLR,,0.09,WeatherDisplay:10.37,2013-03-31 00:39:00,
2013-03-30 20:44:00,50.7,47.9,28.94,SW,225,0.0,0.0,90,0.00,CLR,,0.09,WeatherDisplay:10.37,2013-03-31 00:44:00,
2013-03-30 20:49:00,50.4,47.8,28.94,SW,225,0.0,0.0,91,0.00,CLR,,0.09,WeatherDisplay:10.37,2013-03-31 00:49:00,
2013-03-30 20:54:00,50.2,47.9,28.94,SW,225,0.0,0.0,92,0.00,CLR,,0.09,WeatherDisplay:10.37,2013-03-31 00:54:00,
2013-03-30 20:59:00,50.0,48.1,28.94,SW,225,0.0,0.0,93,0.00,CLR,,0.09,WeatherDisplay:10.37,2013-03-31 00:59:00,
2013-03-30 21:04:00,49.6,48.0,28.94,SW,225,0.0,0.0,94,0.00,CLR,,0.09,WeatherDisplay:10.37,2013-03-31 01:04:00,
2013-03-30 21:09:00,49.5,48.1,28.94,SW,225,0.0,0.0,95,0.00,CLR,,0.09,WeatherDisplay:10.37,2013-03-31 01:09:00,
2013-03-30 21:14:00,49.5,48.4,28.94,SW,225,0.0,0.0,96,0.00,CLR,,0.09,WeatherDisplay:10.37,2013-03-31 01:14:00,
2013-03-30 21:19:00,49.3,48.5,28.94,SW,225,0.0,0.0,97,0.00,CLR,,0.09,WeatherDisplay:10.37,2013-03-31 01:19:00,
2013-03-30 21:24:00,49.1,48.3,28.94,SW,225,0.0,0.0,97,0.00,CLR,,0.09,WeatherDisplay:10.37,2013-03-31 01:24:00,
2013-03-30 21:29:00,48.9,48.1,28.94,SW,225,0.0,0.0,97,0.00,CLR,,0.09,WeatherDisplay:10.37,2013-03-31 01:29:00,
2013-03-30 21:34:00,48.9,48.1,28.94,SW,225,0.0,0.0,97,0.00,CLR,,0.09,WeatherDisplay:10.37,2013-03-31 01:34:00,
2013-03-30 21:39:00,48.9,48.4,28.94,SW,225,0.0,0.0,98,0.00,CLR,,0.09,WeatherDisplay:10.37,2013-03-31 01:39:00,
2013-03-30 21:44:00,48.7,48.2,28.94,SW,225,0.0,0.0,98,0.00,CLR,,0.09,WeatherDisplay:10.37,2013-03-31 01:44:00,
2013-03-30 21:49:00,48.7,48.2,28.94,SW,225,0.0,0.0,98,0.00,CLR,,0.09,WeatherDisplay:10.37,2013-03-31 01:49:00,
2013-03-30 21:54:00,48.4,47.8,28.94,SW,225,0.0,0.0,98,0.00,CLR,,0.09,WeatherDisplay:10.37,2013-03-31 01:54:00,
2013-03-30 21:59:00,48.2,47.9,28.94,SW,225,0.0,0.0,99,0.00,CLR,,0.09,WeatherDisplay:10.37,2013-03-31 01:59:00,
2013-03-30 22:04:00,47.8,47.6,28.94,SW,225,0.0,0.0,99,0.00,CLR,,0.09,WeatherDisplay:10.37,2013-03-31 02:04:00,
2013-03-30 22:09:00,47.7,47.4,28.94,SW,225,0.0,0.0,99,0.00,CLR,,0.09,WeatherDisplay:10.37,2013-03-31 02:09:00,
2013-03-30 22:14:00,47.3,47.0,28.94,SW,225,0.0,0.0,99,0.00,CLR,,0.09,WeatherDisplay:10.37,2013-03-31 02:14:00,
2013-03-30 22:19:00,47.3,47.0,28.94,SW,225,0.0,0.0,99,0.00,CLR,,0.09,WeatherDisplay:10.37,2013-03-31 02:19:00,
2013-03-30 22:24:00,47.1,46.9,28.94,SW,225,0.0,0.0,99,0.00,CLR,,0.09,WeatherDisplay:10.37,2013-03-31 02:24:00,
2013-03-30 22:29:00,47.1,46.9,28.94,SW,225,0.0,0.0,99,0.00,CLR,,0.09,WeatherDisplay:10.37,2013-03-31 02:29:00,
2013-03-30 22:34:00,46.9,46.7,28.94,SW,225,0.0,0.0,99,0.00,CLR,,0.09,WeatherDisplay:10.37,2013-03-31 02:34:00,
2013-03-30 22:39:00,46.9,46.7,28.94,SW,225,0.0,0.0,99,0.00,CLR,,0.09,WeatherDisplay:10.37,2013-03-31 02:39:00,
2013-03-30 22:44:00,46.8,46.5,28.94,SW,225,0.0,0.0,99,0.00,CLR,,0.09,WeatherDisplay:10.37,2013-03-31 02:44:00,
2013-03-30 22:49:00,46.8,46.5,28.94,SW,225,0.0,0.0,99,0.00,CLR,,0.09,WeatherDisplay:10.37,2013-03-31 02:49:00,
2013-03-30 22:54:00,46.6,46.3,28.93,SW,225,0.0,0.0,99,0.00,CLR,,0.09,WeatherDisplay:10.37,2013-03-31 02:54:00,
2013-03-30 22:59:00,46.6,46.3,28.93,SW,225,0.0,0.0,99,0.00,CLR,,0.09,WeatherDisplay:10.37,2013-03-31 02:59:00,
2013-03-30 23:04:00,46.8,46.5,28.93,SW,225,0.0,0.0,99,0.00,CLR,,0.09,WeatherDisplay:10.37,2013-03-31 03:04:00,
2013-03-30 23:09:00,46.9,46.7,28.93,SW,225,0.0,0.0,99,0.00,CLR,,0.09,WeatherDisplay:10.37,2013-03-31 03:09:00,
2013-03-30 23:14:00,46.9,46.7,28.94,SW,225,0.0,0.0,99,0.00,CLR,,0.09,WeatherDisplay:10.37,2013-03-31 03:14:00,
2013-03-30 23:19:00,46.9,46.7,28.93,SW,225,0.0,0.0,99,0.00,CLR,,0.09,WeatherDisplay:10.37,2013-03-31 03:19:00,
2013-03-30 23:24:00,47.7,47.4,28.93,SW,225,0.0,0.0,99,0.00,CLR,,0.09,WeatherDisplay:10.37,2013-03-31 03:24:00,
2013-03-30 23:29:00,48.0,47.8,28.93,SW,225,2.3,0.0,99,0.00,CLR,,0.09,WeatherDisplay:10.37,2013-03-31 03:29:00,
2013-03-30 23:34:00,49.5,49.2,28.93,SW,225,1.2,0.0,99,0.00,CLR,,0.09,WeatherDisplay:10.37,2013-03-31 03:34:00,
2013-03-30 23:39:00,50.5,49.7,28.93,South,180,4.6,4.6,97,0.00,CLR,,0.09,WeatherDisplay:10.37,2013-03-31 03:39:00,
2013-03-30 23:44:00,51.1,49.7,28.92,South,180,2.3,0.0,95,0.00,CLR,,0.09,WeatherDisplay:10.37,2013-03-31 03:44:00,
2013-03-30 23:49:00,51.4,49.8,28.92,South,180,1.2,0.0,94,0.00,CLR,,0.09,WeatherDisplay:10.37,2013-03-31 03:49:00,
2013-03-30 23:54:00,51.8,49.5,28.92,SW,225,4.6,4.6,92,0.00,CLR,,0.09,WeatherDisplay:10.37,2013-03-31 03:54:00,
2013-03-30 23:59:00,52.0,49.7,28.92,SW,225,1.2,0.0,92,0.00,CLR,,0.09,WeatherDisplay:10.37,2013-03-31 03:59:00,